Dewpoint
63 61 61 61 61 61 60 60 59 58 58 59 59 59 59 59 58 58 58 58 58 58 56 56 57 55 45 28 23 28 53 47 37 36 31 32 26 27 26 23 24 25 26 28 30 32 31
63 62 62 61 62 62 61 60 60 60 59 59 59 59 59 59 59 58 58 58 58 57 56 56 57 54 37 29 25 27 30 33 35 35 29 30 31 29 26 26 26 26 27 27 31 32 32
62 61 61 61 60 62 61 61 60 60 59 58 59 58 58 58 58 58 57 58 57 57 56 57 57 42 32 27 27 28 31 33 35 37 33 32 33 30 30 28 28 25 21 23 27 31 30
62 61 61 60 60 61 61 61 60 60 59 58 58 58 58 58 58 58 57 57 56 56 56 57 55 36 30 32 28 29 28 32 32 33 34 33 32 31 30 26 24 22 21 20 26 28 32
62 61 61 60 60 60 61 61 60 60 59 58 57 58 57 57 57 57 57 56 55 56 57 54 36 33 28 39 31 29 29 32 31 32 33 21 34 30 29 26 25 24 20 18 22 28 31
61 61 61 61 61 61 60 61 60 60 59 58 58 57 57 57 57 57 56 54 54 49 46 33 26 30 29 29 32 31 29 32 31 32 33 33 31 28 27 23 16 19 18 20 20 24 24
60 60 61 60 60 60 59 60 60 60 59 58 57 57 57 57 57 56 50 41 36 37 37 30 30 31 31 32 34 36 32 31 32 31 28 31 26 27 21 21 21 20 20 19 22 23 23
60 60 60 59 59 60 59 59 60 59 58 57 57 56 57 57 56 56 50 40 40 43 32 33 32 31 30 33 33 34 31 29 31 29 29 28 25 23 23 23 22 22 20 21 23 23 24
60 59 58 58 58 58 59 59 60 59 58 57 56 56 56 56 55 47 43 43 45 45 36 34 34 34 32 33 32 36 30 29 28 27 27 25 27 24 23 23 22 22 21 21 21 25 26
58 57 57 57 57 57 58 59 59 58 57 57 56 56 56 55 48 45 42 45 45 46 30 32 34 36 35 36 33 35 32 30 29 26 27 26 25 23 24 23 22 20 24 25 24 24 20
56 56 56 57 57 57 58 59 58 58 57 56 56 56 56 55 46 42 44 46 45 46 23 35 35 38 36 33 33 36 32 30 28 28 25 25 23 24 26 26 22 22 25 23 25 25 25
55 55 56 56 56 57 58 58 58 57 56 56 56 55 55 48 47 45 47 48 48 38 24 34 36 36 34 34 34 35 32 32 31 29 28 26 28 25 26 24 22 24 25 28 25 26 23
57 55 54 54 57 59 59 58 57 57 56 56 55 55 53 47 44 47 49 48 37 29 31 31 33 34 33 31 32 31 32 29 26 27 30 30 28 26 24 23 25 27 27 24 23 24 23
56 54 54 56 59 59 58 57 57 57 56 55 55 54 54 46 48 49 49 41 30 32 30 34 33 33 30 31 29 31 29 28 29 28 27 25 26 26 24 23 27 27 25 24 20 21 21
55 53 57 58 58 58 57 57 57 56 56 55 54 51 52 51 49 50 44 34 34 32 33 31 32 29 30 30 27 28 28 27 28 27 25 26 26 24 23 23 25 25 24 25 23 25 22
52 55 57 58 57 57 57 57 57 56 56 55 49 49 48 51 51 49 41 37 33 34 33 32 28 29 26 28 26 26 26 28 28 28 28 26 24 25 23 24 24 25 25 23 26 27 23
57 57 57 55 55 55 56 56 56 56 56 55 50 45 48 50 50 44 34 36 35 32 32 31 30 29 28 28 27 26 26 28 28 26 27 27 26 27 25 24 26 21 22 23 26 33 28
57 56 56 56 55 55 55 55 55 56 56 51 48 41 48 50 36 42 37 35 36 32 32 31 30 30 29 29 28 28 27 28 27 27 25 26 26 26 27 26 26 24 23 23 27 27 31
53 53 53 53 53 53 53 53 54 56 56 50 45 46 49 47 32 34 36 36 36 33 31 31 30 32 31 29 29 29 30 34 28 27 26 27 26 24 27 28 34 28 29 33 35 33 30
49 49 50 50 50 51 51 51 52 53 54 51 45 42 43 44 41 36 37 36 36 37 34 32 31 32 31 30 30 29 30 33 32 29 38 33 26 27 26 28 34 33 35 34 35 30 30
47 47 47 47 47 47 48 49 50 51 51 52 46 43 42 39 39 39 39 39 38 38 36 34 33 32 32 32 32 32 33 33 33 35 32 29 26 27 27 27 31 32 33 35 36 35 32
44 44 45 45 45 45 45 46 47 49 51 52 47 45 43 41 41 39 39 38 37 38 38 37 35 36 37 35 34 33 34 34 34 30 30 36 34 34 32 33 34 33 34 35 34 35 34
43 44 44 44 44 44 44 44 44 46 49 48 51 49 45 43 40 39 39 39 38 39 39 39 38 36 35 36 37 37 38 38 37 37 31 34 34 31 30 35 35 31 33 35 34 25 27
42 42 42 43 43 43 43 43 44 44 46 46 47 47 44 40 42 40 40 40 40 40 39 39 38 36 37 41 41 40 38 37 37 36 37 36 34 34 31 33 24 27 25 25 22 20 22
40 39 41 40 40 41 41 42 42 43 43 44 45 45 43 39 42 41 42 41 40 40 40 41 41 41 41 41 39 37 35 34 36 37 36 36 36 32 29 28 28 28 23 24 25 17 21
40 39 39 40 42 42 41 40 40 41 42 43 43 46 43 37 37 40 40 40 41 40 40 40 41 41 43 42 38 31 30 31 29 30 31 35 36 34 32 27 24 21 18 22 26 17 19
38 39 40 40 40 40 40 40 40 41 43 42 42 42 41 37 36 36 35 37 39 40 38 39 40 39 42 39 34 32 32 35 31 28 27 30 33 32 32 30 28 18 19 25 21 18 19
40 39 38 38 38 38 39 40 40 40 41 41 40 41 40 35 33 34 34 36 38 39 38 40 39 39 39 36 35 34 34 33 33 32 30 30 30 29 31 29 25 18 21 20 14 16 15
37 37 37 36 37 38 38 39 38 39 40 40 38 39 41 38 33 37 36 37 38 42 42 40 37 39 41 37 35 33 32 32 33 30 36 32 27 27 20 15 16 17 16 18 18 16 17
Lifted_Index
3 4 4 5 5 5 6 6 7 8 8 8 8 8 9 9 9 9 10 10 10 11 12 12 12 12 11 10 11 13 14 14 13 12 12 11 10 9 8 8 8 8 9 9 9 10 10
3 3 4 4 5 5 6 6 7 7 8 8 8 8 9 9 9 9 10 10 11 11 12 12 12 12 11 10 12 13 14 13 13 12 11 11 10 9 8 8 8 8 8 8 9 9 9
3 3 4 4 4 5 5 6 6 7 7 8 8 8 9 9 9 9 10 11 11 12 12 13 12 12 11 10 12 13 13 12 12 12 11 11 11 10 9 8 8 8 7 7 8 8 8
3 3 3 4 4 4 5 5 6 7 7 7 8 8 8 9 9 10 11 11 12 12 12 12 12 11 10 11 12 12 12 12 12 11 11 11 11 10 9 8 8 7 6 5 6 8 8
3 3 4 4 4 4 4 5 6 7 7 7 7 7 8 8 9 9 10 12 12 12 12 12 11 10 10 10 11 11 11 11 11 11 11 10 10 9 8 7 6 5 5 5 6 7 8
4 4 4 4 4 4 4 4 5 6 7 7 7 7 8 8 8 9 9 11 11 11 11 11 10 9 9 9 10 10 11 10 10 9 9 8 8 7 7 6 5 5 5 5 6 7 7
4 4 4 4 4 4 4 4 4 5 6 7 8 8 8 8 8 8 8 9 9 9 8 8 8 8 8 9 9 10 10 9 9 8 7 6 6 5 6 6 6 5 5 5 6 7 7
3 3 4 4 4 5 5 4 4 4 5 6 7 7 7 8 8 8 8 8 8 8 7 7 8 8 8 8 8 9 9 8 7 6 6 5 5 5 6 6 6 6 5 5 6 7 7
4 4 4 4 4 5 5 5 5 5 5 5 5 6 7 7 8 8 8 9 10 9 7 6 7 8 8 8 7 8 8 7 6 6 5 5 5 6 6 6 6 5 5 5 5 6 5
6 5 5 5 5 5 6 6 5 5 5 5 5 5 6 7 7 7 8 10 11 9 6 5 6 7 8 7 7 7 8 7 6 5 5 5 5 5 5 5 5 5 5 5 5 5 4
8 7 7 7 6 6 6 6 6 6 6 6 6 5 6 6 7 7 9 10 10 7 4 4 6 7 7 6 6 6 7 7 6 5 5 5 5 5 5 5 5 5 5 5 4 4 4
8 8 8 8 7 6 6 6 6 7 7 7 7 6 6 6 6 7 8 8 7 5 3 4 6 6 6 5 5 5 6 6 6 5 5 5 5 5 4 4 4 4 4 4 3 3 3
8 8 8 8 7 7 7 7 7 7 8 7 7 7 6 6 6 7 7 6 4 3 3 4 5 5 5 5 5 5 5 5 5 5 5 4 4 4 4 4 4 4 3 2 2 2 1
8 8 8 8 7 7 7 7 7 7 7 7 7 7 6 6 6 6 6 4 3 3 4 4 5 5 5 5 5 5 5 5 4 4 4 4 4 4 4 4 4 3 3 2 1 1 1
8 8 8 7 7 7 7 8 8 7 7 7 7 6 6 6 6 6 5 4 4 3 4 4 5 5 5 5 5 5 5 5 4 4 4 4 4 4 4 4 3 3 3 2 1 1 1
8 8 8 7 8 8 8 8 8 7 7 7 6 6 6 6 6 6 5 5 4 4 4 4 5 5 5 5 5 5 5 5 4 4 4 4 4 4 4 4 4 3 3 2 1 1 1
8 8 8 8 8 8 8 7 7 7 7 7 6 6 6 6 6 6 5 5 4 4 4 5 5 5 5 5 5 5 5 4 4 4 3 3 4 4 5 4 4 3 3 2 1 1 0
8 8 8 8 8 8 7 7 7 7 7 7 6 6 6 6 6 6 5 5 4 4 5 5 5 6 5 5 5 5 5 4 4 4 4 3 4 4 4 4 4 3 3 2 1 1 1
8 8 8 8 8 8 8 8 7 7 7 7 7 6 5 5 6 6 5 5 5 5 5 5 6 6 5 5 5 5 4 4 4 4 4 4 3 3 2 3 3 3 3 2 2 1 1
8 8 8 8 8 8 8 8 7 7 7 7 6 6 5 5 5 5 5 5 5 5 5 5 5 5 5 5 4 4 4 4 4 4 4 3 3 2 2 2 2 3 3 3 2 2 2
11 11 11 10 10 10 9 8 8 7 7 6 6 5 5 5 5 5 5 5 5 5 4 5 5 5 4 4 4 4 4 4 4 4 4 3 2 2 2 2 2 3 3 3 2 2 2
15 14 14 13 12 12 11 10 9 8 7 6 5 5 5 5 5 4 5 5 5 5 4 4 4 4 4 4 4 4 4 4 4 4 3 3 2 2 2 2 2 3 3 3 2 2 2
17 16 16 16 15 15 14 14 13 12 10 8 6 5 5 5 4 4 4 4 4 4 4 4 4 4 4 4 4 4 4 4 4 3 3 3 2 2 2 2 2 3 3 3 3 2 2
17 17 17 17 17 17 17 16 16 15 13 11 9 7 6 5 5 5 4 4 4 4 4 4 4 4 4 4 4 4 4 4 4 3 3 2 2 2 2 2 2 3 3 3 3 2 2
18 18 18 18 18 18 18 18 17 17 16 14 12 9 7 6 6 6 5 5 4 4 4 4 3 3 3 3 3 3 3 3 3 3 3 2 2 2 2 2 2 3 3 3 2 2 3
18 18 18 18 18 18 18 18 18 17 16 16 14 12 10 8 7 7 6 6 5 5 5 4 4 3 3 3 2 2 2 2 3 3 3 2 2 2 1 1 2 2 3 2 2 2 3
19 18 18 18 18 18 18 18 18 17 17 16 15 14 13 11 10 10 8 7 6 5 5 5 4 4 4 3 2 2 2 2 3 3 3 2 2 1 1 0 1 2 3 3 2 3 4
18 18 19 19 19 18 18 18 18 17 17 17 16 15 14 13 13 12 10 8 7 6 5 5 5 5 4 3 2 2 2 2 2 2 2 2 1 1 1 0 1 2 4 4 4 5 6
18 18 18 18 18 18 18 18 18 17 17 17 16 15 14 14 14 13 11 10 9 7 6 5 5 5 4 3 2 2 1 1 2 2 1 1 1 1 1 1 2 3 4 6 7 7 7